Theta_e
314 315 317 318 319 318 318 318 318 318 318 317 316 315 315 316 316 316 317 316 314 312 311 307 306 304 304 304 304 306 308 310 311 316 318 320 320 321 320 319 318 317 314 311
314 316 317 317 315 315 316 317 317 318 317 314 315 316 316 316 316 315 314 314 313 312 309 307 305 304 302 301 301 303 304 306 308 313 315 316 317 318 318 317 316 315 313 310
317 320 317 316 316 316 316 316 317 317 316 316 316 317 319 318 317 314 312 312 310 308 307 306 305 302 301 300 300 300 301 302 304 308 310 312 312 309 310 313 313 312 311 309
317 315 314 314 315 315 317 317 316 315 316 320 315 319 318 318 317 313 312 311 308 307 306 305 303 302 300 300 299 299 298 299 301 303 306 307 308 307 307 307 308 309 308 308
317 314 314 315 315 315 316 312 313 313 316 317 318 317 318 316 316 313 311 308 307 305 304 303 303 301 300 299 299 298 298 298 298 299 301 302 303 304 305 303 302 304 304 304
314 309 311 314 313 312 310 312 314 315 316 321 319 319 317 316 315 311 309 307 305 305 304 303 301 300 299 298 298 297 298 297 297 297 297 297 298 299 300 301 301 301 302 302
317 316 312 310 313 311 311 314 321 324 325 324 318 316 317 315 312 312 309 305 304 304 303 302 302 300 298 297 297 296 296 296 296 296 296 296 296 296 297 298 298 299 300 300
320 320 316 311 314 317 318 318 324 326 326 325 315 320 318 312 309 306 305 303 302 301 301 300 300 298 297 297 296 296 295 294 295 295 295 295 295 295 295 295 295 296 297 298
320 320 313 311 311 312 315 315 313 317 318 321 318 318 316 310 308 305 303 301 300 299 299 299 298 298 296 296 295 294 294 293 292 293 294 294 293 294 294 294 294 294 294 294
318 320 318 313 309 311 314 317 322 318 322 322 317 315 315 315 312 306 303 301 300 299 298 298 296 297 296 294 294 293 292 292 291 291 291 291 291 291 291 292 293 293 293 292
315 318 317 316 315 315 313 312 312 313 314 318 318 315 312 312 310 307 302 299 298 297 296 296 296 294 294 292 292 292 291 290 290 289 290 289 289 288 288 287 288 287 290 291
315 315 319 316 314 314 314 314 314 317 317 316 316 318 314 308 306 302 299 296 295 295 292 293 295 292 292 291 291 290 290 290 289 288 289 289 289 288 287 285 285 285 286 286
315 316 318 316 311 313 315 313 314 315 315 317 319 316 310 304 302 301 301 297 295 294 292 291 293 293 291 290 290 289 288 288 288 287 287 288 288 288 287 285 284 284 285 285
311 312 314 315 311 312 314 313 314 315 317 317 316 313 312 310 307 306 301 298 297 295 291 291 291 291 291 290 289 288 288 287 287 287 286 286 287 287 287 285 284 284 284 284
311 312 310 310 310 310 310 309 308 310 311 311 310 311 310 309 307 304 304 296 294 294 290 290 290 290 290 290 289 288 287 287 286 286 286 285 285 284 284 284 283 282 283 284
306 307 307 306 305 305 306 306 306 307 308 308 307 306 304 302 296 296 295 292 291 293 290 290 290 290 289 289 289 287 286 286 286 284 284 283 283 283 283 283 282 281 282 283
303 305 303 303 302 303 304 303 303 304 304 303 303 302 296 296 294 294 293 292 290 292 290 290 290 289 289 289 289 287 286 285 284 283 283 284 283 282 282 282 281 280 280 281
301 301 302 302 301 302 300 299 298 298 298 299 300 295 294 292 291 291 292 291 291 291 291 290 290 289 289 288 286 285 284 283 283 282 282 283 282 281 281 281 280 279 278 279
299 299 299 301 301 299 299 298 298 296 297 298 298 292 290 290 290 291 292 292 291 291 290 290 289 288 287 286 285 283 282 281 281 280 280 280 280 280 279 279 278 277 277 277
294 297 299 300 298 297 294 295 293 293 295 298 293 291 291 290 290 291 291 291 291 290 290 290 288 286 286 285 283 280 280 279 279 279 278 278 277 277 276 276 276 275 274 274
293 295 298 298 298 296 297 293 292 294 295 296 293 292 292 291 291 291 291 291 290 290 289 287 286 285 284 282 279 278 278 277 276 275 274 273 273 273 272 272 272 272 271 271
291 293 295 293 293 292 292 292 292 293 294 293 291 291 291 291 291 291 290 290 290 289 287 285 283 282 280 278 276 275 275 274 273 271 270 269 268 267 267 267 267 267 268 268
291 292 292 293 292 292 291 292 292 293 294 293 292 292 291 291 290 290 290 290 288 286 283 280 278 277 276 274 273 272 272 270 269 268 266 266 265 265 265 265 265 265 265 266
292 292 292 292 291 292 292 292 292 292 292 292 291 291 291 290 290 289 288 286 284 281 279 276 275 274 273 271 270 270 268 267 266 265 264 264 264 264 264 264 264 264 264 265
293 291 291 291 291 291 291 291 291 291 291 291 291 290 289 288 287 286 284 281 279 277 275 273 272 271 270 269 268 267 266 265 264 264 263 263 263 263 264 264 264 264 264 264
292 292 291 292 291 291 291 291 291 290 290 290 289 287 283 281 281 279 278 277 275 273 272 270 269 268 268 267 266 265 265 264 263 262 262 262 262 262 262 263 263 264 265 266
Wind_Speed
8 9 11 17 17 20 20 19 20 21 19 17 17 16 17 20 20 16 11 8 9 12 16 24 26 27 28 29 26 20 11 5 8 11 14 16 18 18 20 21 21 22 23 25
5 12 17 17 8 12 15 17 19 17 9 1 13 18 21 17 19 7 8 9 12 12 15 20 26 28 29 27 27 24 18 11 3 6 8 10 10 14 16 17 18 20 22 25
17 14 6 11 14 15 16 16 18 17 14 11 11 15 13 9 14 9 12 14 14 14 15 17 24 29 30 32 31 27 22 15 10 5 4 4 5 4 6 11 15 15 18 21
12 7 7 10 16 13 16 11 11 11 6 10 4 11 12 8 8 14 12 12 13 14 14 14 19 27 30 29 28 28 27 22 17 10 5 5 7 9 8 9 11 13 17 22
2 5 4 8 8 7 6 1 4 5 10 12 11 7 8 5 8 13 10 10 12 12 13 14 17 19 21 24 24 25 26 24 22 18 13 9 9 9 9 6 9 11 14 19
17 3 4 10 2 7 2 6 10 7 5 9 14 12 7 1 6 11 9 9 9 10 12 13 16 19 21 20 21 22 22 25 29 24 19 16 12 12 12 12 12 10 11 14
5 9 5 3 7 5 7 8 8 8 9 13 6 6 13 4 8 8 9 8 7 9 10 11 12 16 16 18 18 20 25 28 28 26 25 21 17 13 13 13 12 12 12 11
10 17 5 7 5 7 8 8 8 11 13 14 3 8 8 13 11 11 11 9 6 7 9 11 12 14 15 18 21 22 26 25 23 21 22 23 24 19 16 15 15 14 14 13
10 10 3 3 1 2 3 6 6 6 9 9 13 20 19 14 11 8 9 8 7 7 9 10 11 13 15 19 21 23 21 20 21 21 20 20 21 22 22 20 17 15 15 15
3 9 4 3 1 8 7 1 5 3 4 7 13 20 15 13 8 7 5 5 7 8 9 9 11 13 14 15 16 17 18 19 19 19 19 19 19 19 19 19 21 21 18 16
5 4 15 10 9 14 7 6 11 12 10 13 17 14 11 6 2 6 5 3 4 5 7 6 8 10 10 11 12 13 14 15 16 18 17 18 19 19 20 22 22 27 26 23
9 2 8 23 20 17 10 15 16 13 8 11 12 13 13 2 5 4 5 5 1 3 5 5 5 6 7 9 11 11 12 13 14 15 15 17 17 21 22 27 29 29 27 29
2 3 5 8 10 2 7 11 14 18 18 24 17 14 3 4 5 6 6 6 5 2 1 4 5 6 8 10 11 11 12 12 13 15 16 16 16 18 21 26 29 30 31 31
1 8 14 14 18 19 17 18 16 14 11 14 16 21 17 12 5 6 5 6 6 5 3 2 3 6 7 9 10 13 14 15 15 15 16 17 17 17 17 22 28 32 32 30
5 11 15 18 21 21 21 19 22 23 24 23 25 23 22 19 20 13 8 5 5 5 3 3 4 5 9 9 9 11 13 14 16 18 22 21 21 23 26 26 26 26 30 32
8 9 11 17 18 20 23 24 27 24 24 25 24 25 22 12 7 2 4 4 7 7 5 5 6 8 9 11 11 12 14 14 14 22 26 29 31 31 29 27 28 30 29 26
11 8 8 19 15 18 15 22 22 24 23 23 22 13 8 6 5 5 6 7 8 9 7 7 7 10 12 13 12 14 16 15 18 21 23 26 29 27 27 30 34 35 31 30
12 11 9 13 11 19 13 10 8 13 15 12 10 1 1 2 6 7 7 10 11 11 11 10 10 13 14 14 14 15 16 16 19 22 24 25 24 27 28 29 29 31 31 32
18 15 8 8 15 18 24 18 19 14 18 12 4 5 2 6 9 13 10 7 10 12 13 13 10 12 15 16 15 16 15 17 19 21 24 26 27 30 30 32 33 34 33 33
5 13 11 10 13 16 15 3 4 4 12 6 6 4 6 9 9 11 12 11 11 13 15 11 8 14 15 16 17 17 20 20 21 23 25 27 30 31 33 34 37 37 35 37
2 4 13 13 15 12 4 5 3 7 8 8 4 7 10 11 11 14 12 13 14 13 8 8 12 15 16 16 18 20 23 24 26 27 28 29 29 31 34 37 36 36 37 38
8 7 6 5 7 11 5 5 6 3 5 4 9 13 14 13 12 12 13 11 9 6 6 10 13 16 18 18 19 24 27 29 30 32 32 32 32 31 32 34 37 36 36 38
7 10 7 6 6 2 8 10 10 11 10 14 17 14 12 12 13 12 11 8 5 7 8 10 12 17 20 17 17 23 29 29 32 34 34 33 34 33 32 32 33 33 32 32
14 17 11 13 15 22 18 18 17 16 16 16 15 14 11 12 11 10 6 5 6 8 8 10 13 16 20 19 21 22 27 29 30 33 33 33 33 34 33 32 31 31 29 29
12 4 12 13 19 19 19 20 19 17 17 16 12 10 9 7 7 5 4 4 7 9 11 11 14 18 22 23 24 25 27 28 30 31 32 33 32 32 32 32 31 32 33 33
16 21 12 15 19 16 18 16 14 13 16 11 7 4 2 1 3 2 4 5 7 10 12 15 16 19 24 25 26 27 27 26 29 31 31 30 32 32 31 32 33 33 38 39
Wind_Direction
197 215 223 250 239 252 276 287 286 283 294 303 295 296 290 288 291 292 308 336 54 66 49 33 27 25 23 20 13 2 344 278 233 226 228 233 234 228 229 229 226 219 215 211
182 232 248 268 298 283 276 274 277 284 294 277 280 298 289 282 272 318 346 72 68 47 41 34 28 26 28 25 23 22 13 360 315 235 237 239 242 247 243 237 236 228 220 210
244 266 295 260 256 261 265 267 275 282 313 281 279 276 288 247 259 66 101 89 67 53 39 29 29 28 27 27 21 24 30 36 31 348 317 270 257 258 291 248 242 237 235 227
259 277 258 238 252 261 267 278 278 276 279 295 29 298 300 276 161 117 82 57 55 48 51 46 35 30 27 28 29 30 29 29 37 32 21 335 301 295 276 254 254 246 232 228
219 171 184 218 228 217 278 350 251 248 263 292 257 253 241 235 222 123 79 60 54 52 48 44 43 43 35 31 28 34 37 36 37 31 33 13 343 322 307 307 283 248 244 239
259 105 212 242 211 220 33 263 250 255 271 262 264 228 279 209 139 133 100 69 59 57 57 53 44 40 34 32 32 35 37 36 37 35 29 19 5 345 329 316 300 282 254 238
216 231 171 241 255 191 220 264 288 261 238 258 284 240 254 223 117 130 129 107 80 71 61 59 49 41 36 31 30 33 36 33 30 29 33 27 13 2 344 334 322 316 293 267
283 291 189 150 252 309 286 254 251 282 279 290 139 259 279 102 114 112 113 111 100 69 57 49 42 36 32 30 31 27 30 29 28 27 28 27 29 17 0 345 334 322 310 297
305 269 117 202 260 268 129 232 9 324 295 282 265 270 272 139 118 118 122 119 92 63 44 35 33 29 26 26 26 29 27 23 22 19 20 23 23 23 16 8 356 336 316 306
331 290 276 91 157 228 237 339 291 189 247 248 262 283 283 270 165 154 126 76 47 42 38 28 27 25 24 24 21 22 23 20 16 17 15 15 15 15 17 14 9 1 337 325
320 248 273 299 246 268 239 234 226 254 257 266 274 271 311 9 146 173 154 103 65 35 25 18 25 17 20 25 26 19 15 14 12 10 7 7 9 12 12 13 8 6 358 349
266 258 252 273 285 299 283 271 267 261 253 248 261 258 293 338 173 184 174 168 149 19 17 17 27 21 18 24 18 11 6 4 0 0 0 360 357 2 4 4 4 3 360 2
87 217 289 291 272 193 227 263 255 259 262 259 266 272 275 153 167 205 220 210 212 195 2 355 346 3 4 7 7 357 357 357 351 351 349 348 350 350 351 350 350 351 350 353
40 260 248 259 275 305 294 292 295 295 275 267 256 279 277 258 270 281 273 257 237 211 218 305 301 317 334 343 347 343 344 343 344 341 339 335 334 334 330 331 335 337 339 339
244 252 259 259 265 276 283 283 280 272 276 277 287 287 284 288 293 309 248 270 272 233 248 303 300 315 314 309 323 323 320 320 328 331 327 324 324 323 321 322 322 326 328 328
249 272 290 278 278 275 276 272 267 272 273 274 275 275 279 317 10 314 249 256 276 255 276 310 321 322 318 314 304 309 305 306 309 311 310 313 313 315 316 314 315 318 318 313
267 266 268 269 279 283 272 254 263 265 266 272 275 304 356 335 320 299 289 276 292 281 268 297 315 326 321 320 310 295 300 304 304 300 300 299 304 304 303 304 308 310 311 310
254 259 260 271 281 260 266 281 292 284 287 295 312 58 79 333 315 305 284 274 276 284 266 273 298 309 318 317 313 308 300 296 295 295 299 299 295 295 295 296 297 300 303 302
234 252 262 255 252 274 290 289 285 298 287 308 236 171 42 341 313 288 272 270 276 285 285 281 290 303 311 315 319 319 306 299 297 294 294 295 294 294 292 289 288 293 294 292
241 240 242 251 260 264 286 10 18 315 280 123 114 170 302 308 287 290 320 327 299 283 291 290 304 303 311 324 326 324 309 308 302 300 296 295 295 293 292 291 291 290 289 287
218 240 233 244 257 266 283 84 125 246 296 156 177 297 298 283 275 294 295 291 281 278 294 318 309 308 314 324 330 313 308 306 308 306 302 299 295 293 292 292 290 288 287 284
255 254 229 232 263 272 74 123 221 331 138 217 285 297 292 287 283 284 281 282 290 330 316 307 311 306 315 326 328 313 307 313 312 310 306 304 302 297 293 291 291 288 285 282
243 242 261 243 260 223 191 256 262 274 270 289 296 292 293 283 278 276 282 300 314 313 326 328 322 311 309 317 314 303 304 311 309 306 304 303 302 298 295 292 290 290 286 281
257 252 250 259 252 259 269 267 270 276 274 284 285 289 282 272 280 282 295 301 309 321 325 325 317 303 301 311 308 301 304 306 304 301 302 302 300 298 295 290 287 285 285 283
245 233 241 252 258 269 264 263 265 269 275 281 285 288 270 269 262 278 298 311 307 316 318 317 310 303 302 308 306 306 305 307 304 303 302 301 298 297 297 292 288 284 280 276
241 242 246 251 260 262 271 278 281 288 283 287 283 215 197 231 270 298 277 296 309 310 312 308 303 300 300 305 304 306 306 306 305 303 301 300 299 298 296 295 294 288 288 288